Location: Baumgartsau
(48.4586°N, 14.0864°E)
Time: 00:13:08
(UTC+00:00)

SL-16 R/B - Pass Details

Date: 08 August 2020
Orbit: 843 x 845 km, 71.0° (Epoch: 26 September)

Event Time Altitude Azimuth Distance (km) Brightness Sun altitude
Rises 23:19:08 0° 314° (NW) 3,414 5.9 -25.7°
Reaches altitude 10° 23:23:36 10° 282° (WNW) 2,472 4.7 -25.7°
Maximum altitude 23:25:10 11° 265° (W) 2,385 4.4 -25.7°
Enters shadow 23:25:22 11° 263° (W) 2,386 4.4 -25.7°
